Flag for Trinidad and Tobago Weather past 2 weeks in San Fernando, Trinidad and Tobago

Now
77 °F

Passing clouds.


Feels Like: 78 °F
Forecast: 76 / 87 °F
Wind: No wind

Location: Piarco International Airport - Trinidad

Current Time: Apr 21, 2015 at 1:28:36 AM

Latest Report: Apr 21, 2015 at 12:00 AM


Visibility: N/A

Pressure: 29.95 "Hg

Humidity: 83%

Dew point: 72 °F

Location of San FernandoLocation

Historic Weather in San Fernando — Graph

°F

San Fernando temperature yesterday

Maximum temperature yesterday: 90 °F (at 11:00 AM)
Minimum temperature yesterday: 77 °F (at 12:00 AM)
Average temperature yesterday: 82 °F

Past Weeks' High & Low Weather Summary

 TemperatureHumidityPressure
High91 °F (Apr 8, 2:00 PM)100% (Apr 19, 9:00 PM)30.04 "Hg (Apr 19, 9:00 PM)
Low72 °F (Apr 19, 9:00 PM)46% (Apr 6, 1:00 PM)29.86 "Hg (Apr 6, 2:00 AM)
Average81 °F76%29.94 "Hg
* Reported Midnight between Apr 5 and Apr 6 — Midnight between Apr 20 and Apr 21, San Fernando, Weather by CustomWeather, © 2015

Note: Actual official high and low records may vary slightly from our data, if they occured in-between our weather recording intervals... More about our weather records

Advertising

San Fernando weather history for previous 24 hours

 ConditionsComfort  
Time TempWeatherWind HumidityBarometerVisibility
12:00 AM
Tue, Apr 21
77 °FPassing clouds.No wind83%29.95 "HgN/A
11:00 PM
Mon, Apr 20
77 °FPassing clouds.No wind83%29.95 "HgN/A
10:00 PM77 °FPassing clouds.No wind83%29.95 "HgN/A
9:00 PM79 °FPassing clouds.No wind79%29.92 "HgN/A
8:00 PM79 °FPassing clouds.3 mph79%29.92 "HgN/A
7:00 PM81 °FPassing clouds.12 mph74%29.92 "HgN/A
6:00 PM82 °FPassing clouds.12 mph70%29.92 "Hg1 mi
5:00 PM84 °FPassing clouds.14 mph62%29.89 "HgN/A
4:00 PM86 °FPassing clouds.16 mph59%29.89 "HgN/A
3:00 PM88 °FScattered clouds.14 mph55%29.89 "HgN/A
2:00 PM90 °FScattered clouds.21 mph49%29.92 "Hg2 mi
1:00 PM90 °FHot.18 mph52%29.92 "Hg1 mi
12:00 PM90 °FScattered clouds.18 mph52%29.95 "Hg1 mi
11:00 AM90 °FScattered clouds.16 mph52%29.98 "Hg4 mi
10:00 AM86 °FScattered clouds.14 mph59%29.98 "HgN/A
9:00 AM86 °FScattered clouds.18 mph59%29.95 "HgN/A
8:00 AM82 °FPassing clouds.13 mph70%29.95 "HgN/A
7:00 AM79 °FPassing clouds.6 mph84%29.95 "HgN/A
6:00 AM77 °FPassing clouds.No wind83%29.92 "HgN/A
5:00 AM77 °FPassing clouds.No wind89%29.92 "HgN/A
4:00 AM77 °FPassing clouds.5 mph89%29.92 "HgN/A
3:00 AM77 °FPassing clouds.5 mph89%29.92 "HgN/A
2:00 AM77 °FPassing clouds.6 mph89%29.92 "HgN/A
1:00 AM77 °FPassing clouds.7 mph89%29.92 "HgN/A
Weather by CustomWeather, © 2015

See weather overviewHow to use our weather pages